,,PressureMeas_1m,,PRMeasQMR101_1,,RHStat155_1m_1,,SRMeasQMS101R_1m,,TAStat155_1m_1,,GenWind_1,,GenWind_1,
2019-09-20, 07:00:06,VALID,918.747,VALID,0.0,VALID,99.324,VALID,21.291,VALID,21.051,VALID,358.0,VALID,0.254,
2019-09-20, 07:01:06,VALID,918.759,VALID,0.0,VALID,99.338,VALID,23.508,VALID,21.042,VALID,359.0,VALID,0.314,
2019-09-20, 07:02:06,VALID,918.754,VALID,0.0,VALID,99.33,VALID,25.693,VALID,21.034,VALID,357.0,VALID,0.329,
2019-09-20, 07:03:06,VALID,918.757,VALID,0.0,VALID,99.365,VALID,29.225,VALID,21.034,INVALID,360.0,VALID,0.122,
2019-09-20, 07:04:06,VALID,918.748,VALID,0.0,VALID,99.317,VALID,30.439,VALID,21.008,INVALID,360.0,VALID,0.0,
2019-09-20, 07:05:06,VALID,918.738,VALID,0.0,VALID,99.352,VALID,29.576,VALID,21.011,INVALID,360.0,VALID,0.0,
2019-09-20, 07:06:06,VALID,918.753,VALID,0.0,VALID,99.38,VALID,31.07,VALID,21.021,INVALID,360.0,VALID,0.0,
2019-09-20, 07:07:06,VALID,918.781,VALID,0.0,VALID,99.363,VALID,31.829,VALID,21.003,INVALID,360.0,VALID,0.0,
2019-09-20, 07:08:06,VALID,918.809,VALID,0.0,VALID,99.39,VALID,33.288,VALID,21.018,INVALID,360.0,VALID,0.0,
2019-09-20, 07:09:06,VALID,918.82,VALID,0.0,VALID,99.385,VALID,34.603,VALID,20.998,INVALID,360.0,VALID,0.0,
2019-09-20, 07:10:06,VALID,918.849,VALID,0.0,VALID,99.407,VALID,36.712,VALID,21.006,INVALID,360.0,VALID,0.0,
2019-09-20, 07:11:06,VALID,918.861,VALID,0.0,VALID,99.405,VALID,38.643,VALID,21.005,INVALID,360.0,VALID,0.0,
2019-09-20, 07:12:06,VALID,918.886,VALID,0.0,VALID,99.437,VALID,41.853,VALID,21.025,INVALID,360.0,VALID,0.0,
2019-09-20, 07:13:06,VALID,918.891,VALID,0.0,VALID,99.459,VALID,45.731,VALID,21.036,INVALID,360.0,VALID,0.0,
2019-09-20, 07:14:06,VALID,918.913,VALID,0.0,VALID,99.462,VALID,49.887,VALID,21.03,INVALID,360.0,VALID,0.0,
2019-09-20, 07:15:06,VALID,918.916,VALID,0.0,VALID,99.496,VALID,55.578,VALID,21.092,INVALID,360.0,VALID,0.0,
2019-09-20, 07:16:06,VALID,918.932,VALID,0.0,VALID,99.52,VALID,61.327,VALID,21.163,INVALID,360.0,VALID,0.0,
2019-09-20, 07:17:06,VALID,918.924,VALID,0.0,VALID,99.484,VALID,65.648,VALID,21.111,INVALID,360.0,VALID,0.0,
2019-09-20, 07:18:06,VALID,918.937,VALID,0.0,VALID,99.435,VALID,69.662,VALID,21.035,INVALID,360.0,VALID,0.0,
2019-09-20, 07:19:06,VALID,918.929,VALID,0.0,VALID,99.441,VALID,73.097,VALID,21.009,INVALID,360.0,VALID,0.0,
2019-09-20, 07:20:06,VALID,918.938,VALID,0.0,VALID,99.476,VALID,72.523,VALID,21.027,INVALID,360.0,VALID,0.0,
2019-09-20, 07:21:06,VALID,918.938,VALID,0.0,VALID,99.501,VALID,72.099,VALID,21.067,INVALID,360.0,VALID,0.0,
2019-09-20, 07:22:06,VALID,918.953,VALID,0.0,VALID,99.495,VALID,70.877,VALID,21.08,INVALID,360.0,VALID,0.0,
2019-09-20, 07:23:06,VALID,918.964,VALID,0.0,VALID,99.473,VALID,67.42,VALID,21.052,INVALID,360.0,VALID,0.0,
2019-09-20, 07:24:06,VALID,918.967,VALID,0.0,VALID,99.444,VALID,62.563,VALID,21.019,INVALID,360.0,VALID,0.0,
2019-09-20, 07:25:06,VALID,918.97,VALID,0.0,VALID,99.494,VALID,56.068,VALID,21.038,INVALID,360.0,VALID,0.0,
2019-09-20, 07:26:06,VALID,918.966,VALID,0.0,VALID,99.471,VALID,53.556,VALID,21.036,INVALID,360.0,VALID,0.0,
2019-09-20, 07:27:06,VALID,918.972,VALID,0.0,VALID,99.487,VALID,53.03,VALID,21.072,INVALID,360.0,VALID,0.0,
2019-09-20, 07:28:06,VALID,918.988,VALID,0.0,VALID,99.484,VALID,52.232,VALID,21.091,INVALID,360.0,VALID,0.0,
2019-09-20, 07:29:06,VALID,918.97,VALID,0.0,VALID,99.511,VALID,51.1,VALID,21.124,INVALID,360.0,VALID,0.0,
2019-09-20, 07:30:06,VALID,918.975,VALID,0.0,VALID,99.494,VALID,49.538,VALID,21.118,INVALID,360.0,VALID,0.0,
2019-09-20, 07:31:06,VALID,918.988,VALID,0.0,VALID,99.481,VALID,48.264,VALID,21.123,INVALID,360.0,VALID,0.0,
2019-09-20, 07:32:06,VALID,919.012,VALID,0.0,VALID,99.49,VALID,48.302,VALID,21.153,INVALID,360.0,VALID,0.0,
2019-09-20, 07:33:06,VALID,919.028,VALID,0.0,VALID,99.491,VALID,49.36,VALID,21.177,INVALID,360.0,VALID,0.0,
2019-09-20, 07:34:06,VALID,919.042,VALID,0.0,VALID,99.491,VALID,51.776,VALID,21.211,INVALID,360.0,VALID,0.0,
2019-09-20, 07:35:06,VALID,919.069,VALID,0.0,VALID,99.47,VALID,54.074,VALID,21.256,INVALID,360.0,VALID,0.0,
2019-09-20, 07:36:06,VALID,919.081,VALID,0.0,VALID,99.468,VALID,54.809,VALID,21.265,INVALID,360.0,VALID,0.0,
2019-09-20, 07:37:06,VALID,919.095,VALID,0.0,VALID,99.381,VALID,58.011,VALID,21.215,INVALID,360.0,VALID,0.0,
2019-09-20, 07:38:06,VALID,919.117,VALID,0.0,VALID,99.379,VALID,60.405,VALID,21.237,INVALID,360.0,VALID,0.0,
2019-09-20, 07:39:06,VALID,919.135,VALID,0.0,VALID,99.24,VALID,61.762,VALID,21.181,INVALID,360.0,VALID,0.0,
2019-09-20, 07:40:06,VALID,919.149,VALID,0.0,VALID,99.179,VALID,63.857,VALID,21.159,INVALID,360.0,VALID,0.0,
2019-09-20, 07:41:06,VALID,919.135,VALID,0.0,VALID,99.184,VALID,65.051,VALID,21.199,INVALID,360.0,VALID,0.0,
2019-09-20, 07:42:06,VALID,919.143,VALID,0.0,VALID,99.119,VALID,64.454,VALID,21.227,INVALID,360.0,VALID,0.0,
2019-09-20, 07:43:06,VALID,919.152,VALID,0.0,VALID,99.01,VALID,61.949,VALID,21.212,INVALID,360.0,VALID,0.0,
2019-09-20, 07:44:06,VALID,919.148,VALID,0.0,VALID,98.81,VALID,60.805,VALID,21.178,INVALID,360.0,VALID,0.0,
2019-09-20, 07:45:06,VALID,919.144,VALID,0.0,VALID,98.681,VALID,58.974,VALID,21.188,INVALID,360.0,VALID,0.0,
2019-09-20, 07:46:06,VALID,919.145,VALID,0.0,VALID,98.645,VALID,57.717,VALID,21.252,INVALID,360.0,VALID,0.0,
2019-09-20, 07:47:06,VALID,919.139,VALID,0.0,VALID,98.64,VALID,58.678,VALID,21.323,INVALID,360.0,VALID,0.0,
2019-09-20, 07:48:06,VALID,919.113,VALID,0.0,VALID,98.378,VALID,60.484,VALID,21.309,INVALID,360.0,VALID,0.0,
2019-09-20, 07:49:06,VALID,919.116,VALID,0.0,VALID,98.257,VALID,63.171,VALID,21.33,INVALID,360.0,VALID,0.0,
2019-09-20, 07:50:06,VALID,919.109,VALID,0.0,VALID,98.02,VALID,68.99,VALID,21.321,INVALID,360.0,VALID,0.0,
2019-09-20, 07:51:06,VALID,919.096,VALID,0.0,VALID,97.816,VALID,81.079,VALID,21.343,INVALID,360.0,VALID,0.0,
2019-09-20, 07:52:06,VALID,919.098,VALID,0.0,VALID,97.673,VALID,101.624,VALID,21.379,INVALID,360.0,VALID,0.0,
2019-09-20, 07:53:06,VALID,919.087,VALID,0.0,VALID,97.584,VALID,128.081,VALID,21.454,INVALID,360.0,VALID,0.0,
2019-09-20, 07:54:06,VALID,919.092,VALID,0.0,VALID,97.536,VALID,148.397,VALID,21.554,INVALID,360.0,VALID,0.0,
2019-09-20, 07:55:06,VALID,919.096,VALID,0.0,VALID,97.265,VALID,148.111,VALID,21.631,INVALID,360.0,VALID,0.0,
2019-09-20, 07:56:06,VALID,919.093,VALID,0.0,VALID,96.947,VALID,145.153,VALID,21.711,INVALID,360.0,VALID,0.0,
2019-09-20, 07:57:06,VALID,919.108,VALID,0.0,VALID,96.636,VALID,145.106,VALID,21.807,INVALID,360.0,VALID,0.0,
2019-09-20, 07:58:06,VALID,919.155,VALID,0.0,VALID,96.548,VALID,146.686,VALID,21.93,INVALID,360.0,VALID,0.0,
2019-09-20, 07:59:06,VALID,919.151,VALID,0.0,VALID,95.929,VALID,149.659,VALID,22.0,INVALID,360.0,VALID,0.0,
2019-09-20, 08:00:06,VALID,919.158,VALID,0.0,VALID,95.208,VALID,149.759,VALID,22.05,INVALID,360.0,VALID,0.0,
2019-09-20, 08:01:06,VALID,919.163,VALID,0.0,VALID,94.797,VALID,148.78,VALID,22.074,INVALID,360.0,VALID,0.0,
2019-09-20, 08:02:06,VALID,919.168,VALID,0.0,VALID,94.438,VALID,153.315,VALID,22.078,INVALID,360.0,VALID,0.0,
2019-09-20, 08:03:06,VALID,919.164,VALID,0.0,VALID,94.422,VALID,157.921,VALID,22.071,INVALID,360.0,VALID,0.0,
2019-09-20, 08:04:06,VALID,919.181,VALID,0.0,VALID,94.355,VALID,161.0,VALID,22.038,INVALID,360.0,VALID,0.0,
2019-09-20, 08:05:06,VALID,919.184,VALID,0.0,VALID,94.641,VALID,163.775,VALID,21.96,INVALID,360.0,VALID,0.0,
2019-09-20, 08:06:06,VALID,919.214,VALID,0.0,VALID,95.142,VALID,173.004,VALID,21.865,INVALID,360.0,VALID,0.0,
2019-09-20, 08:07:06,VALID,919.222,VALID,0.0,VALID,95.88,VALID,192.812,VALID,21.858,INVALID,360.0,VALID,0.0,
2019-09-20, 08:08:06,VALID,919.216,VALID,0.0,VALID,96.274,VALID,206.522,VALID,21.918,INVALID,360.0,VALID,0.0,
2019-09-20, 08:09:06,VALID,919.226,VALID,0.0,VALID,95.254,VALID,212.132,VALID,21.93,INVALID,360.0,VALID,0.0,
2019-09-20, 08:10:06,VALID,919.244,VALID,0.0,VALID,94.923,VALID,214.601,VALID,21.969,INVALID,360.0,VALID,0.0,
2019-09-20, 08:11:06,VALID,919.258,VALID,0.0,VALID,95.203,VALID,222.335,VALID,22.012,INVALID,360.0,VALID,0.0,
2019-09-20, 08:12:06,VALID,919.268,VALID,0.0,VALID,94.551,VALID,233.576,VALID,22.041,INVALID,360.0,VALID,0.0,
2019-09-20, 08:13:06,VALID,919.276,VALID,0.0,VALID,94.909,VALID,244.705,VALID,22.179,INVALID,360.0,VALID,0.0,
2019-09-20, 08:14:06,VALID,919.296,VALID,0.0,VALID,94.957,VALID,257.568,VALID,22.284,INVALID,360.0,VALID,0.0,
2019-09-20, 08:15:06,VALID,919.314,VALID,0.0,VALID,94.612,VALID,267.47,VALID,22.385,INVALID,360.0,VALID,0.0,
2019-09-20, 08:16:06,VALID,919.336,VALID,0.0,VALID,93.826,VALID,253.028,VALID,22.435,INVALID,360.0,VALID,0.0,
2019-09-20, 08:17:06,VALID,919.35,VALID,0.0,VALID,93.664,VALID,234.263,VALID,22.403,INVALID,360.0,VALID,0.0,
2019-09-20, 08:18:06,VALID,919.376,VALID,0.0,VALID,93.254,VALID,232.712,VALID,22.349,INVALID,360.0,VALID,0.0,
2019-09-20, 08:19:06,VALID,919.366,VALID,0.0,VALID,93.18,VALID,233.968,VALID,22.365,INVALID,360.0,VALID,0.0,
2019-09-20, 08:20:06,VALID,919.349,VALID,0.0,VALID,92.746,VALID,230.271,VALID,22.377,INVALID,360.0,VALID,0.0,
2019-09-20, 08:21:06,VALID,919.331,VALID,0.0,VALID,92.618,VALID,231.701,VALID,22.362,INVALID,360.0,VALID,0.0,
2019-09-20, 08:22:06,VALID,919.34,VALID,0.0,VALID,92.471,VALID,238.999,VALID,22.316,INVALID,360.0,VALID,0.0,
2019-09-20, 08:23:06,VALID,919.339,VALID,0.0,VALID,92.848,VALID,250.984,VALID,22.304,INVALID,360.0,VALID,0.0,
2019-09-20, 08:24:06,VALID,919.348,VALID,0.0,VALID,93.534,VALID,259.003,VALID,22.351,INVALID,360.0,VALID,0.0,
2019-09-20, 08:25:06,VALID,919.368,VALID,0.0,VALID,93.643,VALID,269.924,VALID,22.445,INVALID,360.0,VALID,0.0,
2019-09-20, 08:26:06,VALID,919.377,VALID,0.0,VALID,93.123,VALID,286.363,VALID,22.495,INVALID,360.0,VALID,0.717,
2019-09-20, 08:27:06,VALID,919.387,VALID,0.0,VALID,92.4,VALID,299.643,VALID,22.432,INVALID,360.0,VALID,0.157,
2019-09-20, 08:28:06,VALID,919.407,VALID,0.0,VALID,93.275,VALID,314.969,VALID,22.376,INVALID,360.0,VALID,0.0,
2019-09-20, 08:29:06,VALID,919.402,VALID,0.0,VALID,93.235,VALID,339.28,VALID,22.35,INVALID,360.0,VALID,0.814,
2019-09-20, 08:30:06,VALID,919.4,VALID,0.0,VALID,93.664,VALID,330.857,VALID,22.401,VALID,38.0,VALID,1.067,
2019-09-20, 08:31:06,VALID,919.407,VALID,0.0,VALID,93.655,VALID,328.158,VALID,22.487,VALID,60.0,VALID,1.002,
2019-09-20, 08:32:06,VALID,919.4,VALID,0.0,VALID,92.6,VALID,338.282,VALID,22.577,VALID,57.0,VALID,1.49,
2019-09-20, 08:33:06,VALID,919.395,VALID,0.0,VALID,92.647,VALID,347.879,VALID,22.614,VALID,351.0,VALID,0.817,
2019-09-20, 08:34:06,VALID,919.389,VALID,0.0,VALID,93.554,VALID,351.919,VALID,22.698,INVALID,360.0,VALID,0.091,
2019-09-20, 08:35:06,VALID,919.419,VALID,0.0,VALID,93.144,VALID,350.107,VALID,22.802,INVALID,360.0,VALID,0.0,
2019-09-20, 08:36:06,VALID,919.415,VALID,0.0,VALID,92.084,VALID,369.293,VALID,22.927,INVALID,360.0,VALID,0.0,
2019-09-20, 08:37:06,VALID,919.427,VALID,0.0,VALID,91.657,VALID,388.084,VALID,22.976,INVALID,360.0,VALID,0.0,
2019-09-20, 08:38:06,VALID,919.427,VALID,0.0,VALID,92.052,VALID,415.56,VALID,23.035,INVALID,360.0,VALID,0.0,
2019-09-20, 08:39:06,VALID,919.44,VALID,0.0,VALID,92.056,VALID,422.786,VALID,23.219,INVALID,360.0,VALID,0.0,
2019-09-20, 08:40:06,VALID,919.438,VALID,0.0,VALID,90.131,VALID,426.676,VALID,23.363,INVALID,360.0,VALID,0.0,
2019-09-20, 08:41:06,VALID,919.44,VALID,0.0,VALID,88.97,VALID,428.692,VALID,23.329,INVALID,360.0,VALID,0.0,
2019-09-20, 08:42:06,VALID,919.45,VALID,0.0,VALID,89.755,VALID,418.936,VALID,23.262,INVALID,360.0,VALID,0.0,
2019-09-20, 08:43:06,VALID,919.447,VALID,0.0,VALID,90.285,VALID,382.881,VALID,23.343,INVALID,360.0,VALID,0.0,
2019-09-20, 08:44:06,VALID,919.465,VALID,0.0,VALID,89.677,VALID,350.494,VALID,23.478,INVALID,360.0,VALID,0.0,
2019-09-20, 08:45:06,VALID,919.444,VALID,0.0,VALID,89.502,VALID,335.141,VALID,23.51,INVALID,360.0,VALID,0.0,
2019-09-20, 08:46:06,VALID,919.45,VALID,0.0,VALID,89.387,VALID,331.424,VALID,23.235,INVALID,360.0,VALID,0.0,
2019-09-20, 08:47:06,VALID,919.459,VALID,0.0,VALID,90.575,VALID,346.828,VALID,23.1,INVALID,360.0,VALID,0.0,
2019-09-20, 08:48:06,VALID,919.467,VALID,0.0,VALID,91.158,VALID,358.569,VALID,23.191,INVALID,360.0,VALID,0.0,
2019-09-20, 08:49:06,VALID,919.463,VALID,0.0,VALID,91.274,VALID,355.719,VALID,23.404,INVALID,360.0,VALID,0.0,
2019-09-20, 08:50:06,VALID,919.471,VALID,0.0,VALID,91.3,VALID,338.533,VALID,23.709,INVALID,360.0,VALID,0.0,
2019-09-20, 08:51:06,VALID,919.486,VALID,0.0,VALID,90.302,VALID,341.752,VALID,23.919,INVALID,360.0,VALID,0.0,
2019-09-20, 08:52:06,VALID,919.489,VALID,0.0,VALID,88.151,VALID,325.929,VALID,24.014,INVALID,360.0,VALID,0.0,
2019-09-20, 08:53:06,VALID,919.514,VALID,0.0,VALID,86.945,VALID,294.307,VALID,23.806,INVALID,360.0,VALID,0.0,
2019-09-20, 08:54:06,VALID,919.55,VALID,0.0,VALID,88.199,VALID,299.032,VALID,23.665,INVALID,360.0,VALID,0.0,
2019-09-20, 08:55:06,VALID,919.575,VALID,0.0,VALID,88.438,VALID,315.762,VALID,23.643,INVALID,360.0,VALID,0.0,
2019-09-20, 08:56:06,VALID,919.604,VALID,0.0,VALID,88.107,VALID,345.546,VALID,23.589,INVALID,360.0,VALID,0.0,
2019-09-20, 08:57:06,VALID,919.607,VALID,0.0,VALID,88.183,VALID,333.994,VALID,23.435,INVALID,360.0,VALID,0.0,
2019-09-20, 08:58:06,VALID,919.607,VALID,0.0,VALID,88.604,VALID,345.009,VALID,23.434,INVALID,360.0,VALID,0.0,
2019-09-20, 08:59:06,VALID,919.619,VALID,0.0,VALID,88.542,VALID,384.077,VALID,23.507,INVALID,360.0,VALID,0.0,
2019-09-20, 09:00:06,VALID,919.616,VALID,0.0,VALID,89.295,VALID,407.702,VALID,23.676,INVALID,360.0,VALID,0.0,
2019-09-20, 09:01:06,VALID,919.631,VALID,0.0,VALID,87.355,VALID,394.728,VALID,23.795,INVALID,360.0,VALID,0.0,
2019-09-20, 09:02:06,VALID,919.64,VALID,0.0,VALID,86.924,VALID,356.913,VALID,23.981,INVALID,360.0,VALID,0.0,
2019-09-20, 09:03:06,VALID,919.633,VALID,0.0,VALID,87.003,VALID,325.135,VALID,24.069,INVALID,360.0,VALID,0.0,
2019-09-20, 09:04:06,VALID,919.626,VALID,0.0,VALID,87.644,VALID,319.825,VALID,23.978,INVALID,360.0,VALID,0.0,
2019-09-20, 09:05:06,VALID,919.607,VALID,0.0,VALID,87.784,VALID,323.459,VALID,23.814,INVALID,360.0,VALID,0.0,
2019-09-20, 09:06:06,VALID,919.611,VALID,0.0,VALID,89.177,VALID,345.216,VALID,23.849,INVALID,360.0,VALID,0.0,
2019-09-20, 09:07:06,VALID,919.612,VALID,0.0,VALID,89.535,VALID,368.517,VALID,24.047,INVALID,360.0,VALID,0.0,
2019-09-20, 09:08:06,VALID,919.602,VALID,0.0,VALID,86.765,VALID,357.156,VALID,24.242,INVALID,360.0,VALID,0.0,
2019-09-20, 09:09:06,VALID,919.632,VALID,0.0,VALID,86.887,VALID,345.004,VALID,24.432,INVALID,360.0,VALID,0.0,
2019-09-20, 09:10:06,VALID,919.648,VALID,0.0,VALID,86.654,VALID,350.222,VALID,24.636,INVALID,360.0,VALID,0.0,
2019-09-20, 09:11:06,VALID,919.655,VALID,0.0,VALID,85.6,VALID,372.321,VALID,24.802,INVALID,360.0,VALID,0.0,
2019-09-20, 09:12:06,VALID,919.671,VALID,0.0,VALID,85.056,VALID,376.071,VALID,24.834,INVALID,360.0,VALID,0.0,
2019-09-20, 09:13:06,VALID,919.673,VALID,0.0,VALID,84.705,VALID,388.701,VALID,24.83,INVALID,360.0,VALID,0.0,
2019-09-20, 09:14:06,VALID,919.658,VALID,0.0,VALID,84.147,VALID,390.606,VALID,24.831,INVALID,360.0,VALID,0.0,
2019-09-20, 09:15:06,VALID,919.655,VALID,0.0,VALID,83.588,VALID,393.16,VALID,24.664,INVALID,360.0,VALID,0.0,
2019-09-20, 09:16:06,VALID,919.65,VALID,0.0,VALID,84.469,VALID,389.412,VALID,24.361,INVALID,360.0,VALID,0.0,
2019-09-20, 09:17:06,VALID,919.651,VALID,0.0,VALID,85.795,VALID,390.343,VALID,24.193,INVALID,360.0,VALID,0.0,
2019-09-20, 09:18:06,VALID,919.641,VALID,0.0,VALID,86.365,VALID,394.914,VALID,24.303,INVALID,360.0,VALID,0.0,
2019-09-20, 09:19:06,VALID,919.636,VALID,0.0,VALID,84.857,VALID,444.976,VALID,24.518,INVALID,360.0,VALID,0.0,
2019-09-20, 09:20:06,VALID,919.63,VALID,0.0,VALID,84.597,VALID,468.268,VALID,24.64,INVALID,360.0,VALID,0.0,
2019-09-20, 09:21:06,VALID,919.598,VALID,0.0,VALID,83.277,VALID,480.154,VALID,24.776,INVALID,360.0,VALID,0.0,
2019-09-20, 09:22:06,VALID,919.59,VALID,0.0,VALID,84.282,VALID,503.34,VALID,24.767,INVALID,360.0,VALID,0.0,
2019-09-20, 09:23:06,VALID,919.57,VALID,0.0,VALID,84.817,VALID,510.68,VALID,24.697,INVALID,360.0,VALID,0.0,
2019-09-20, 09:24:06,VALID,919.562,VALID,0.0,VALID,85.236,VALID,462.366,VALID,24.842,INVALID,360.0,VALID,0.0,
2019-09-20, 09:25:06,VALID,919.552,VALID,0.0,VALID,84.506,VALID,463.14,VALID,24.979,INVALID,360.0,VALID,0.0,
2019-09-20, 09:26:06,VALID,919.549,VALID,0.0,VALID,83.398,VALID,459.544,VALID,25.027,INVALID,360.0,VALID,0.0,
2019-09-20, 09:27:06,VALID,919.532,VALID,0.0,VALID,83.745,VALID,462.369,VALID,25.086,INVALID,360.0,VALID,0.0,
2019-09-20, 09:28:06,VALID,919.544,VALID,0.0,VALID,84.649,VALID,492.143,VALID,25.05,INVALID,360.0,VALID,0.0,
2019-09-20, 09:29:06,VALID,919.55,VALID,0.0,VALID,84.011,VALID,505.475,VALID,24.958,INVALID,360.0,VALID,0.0,
2019-09-20, 09:30:06,VALID,919.55,VALID,0.0,VALID,83.224,VALID,492.114,VALID,25.045,INVALID,360.0,VALID,0.0,
2019-09-20, 09:31:06,VALID,919.553,VALID,0.0,VALID,82.171,VALID,510.713,VALID,25.091,INVALID,360.0,VALID,0.0,
2019-09-20, 09:32:06,VALID,919.541,VALID,0.0,VALID,81.983,VALID,541.399,VALID,25.204,INVALID,360.0,VALID,0.0,
2019-09-20, 09:33:07,VALID,919.541,VALID,0.0,VALID,82.526,VALID,551.046,VALID,25.428,INVALID,360.0,VALID,0.0,
2019-09-20, 09:34:07,VALID,919.553,VALID,0.0,VALID,79.78,VALID,498.424,VALID,25.67,INVALID,360.0,VALID,0.0,
2019-09-20, 09:35:07,VALID,919.548,VALID,0.0,VALID,79.964,VALID,498.392,VALID,25.876,INVALID,360.0,VALID,0.0,
2019-09-20, 09:36:07,VALID,919.563,VALID,0.0,VALID,78.571,VALID,512.68,VALID,25.802,INVALID,360.0,VALID,0.0,
2019-09-20, 09:37:07,VALID,919.561,VALID,0.0,VALID,79.508,VALID,499.776,VALID,25.454,INVALID,360.0,VALID,0.0,
2019-09-20, 09:38:07,VALID,919.556,VALID,0.0,VALID,82.545,VALID,477.887,VALID,25.027,INVALID,360.0,VALID,0.0,
2019-09-20, 09:39:07,VALID,919.562,VALID,0.0,VALID,82.943,VALID,434.223,VALID,24.804,INVALID,360.0,VALID,0.0,
2019-09-20, 09:40:07,VALID,919.565,VALID,0.0,VALID,82.153,VALID,444.835,VALID,24.812,INVALID,360.0,VALID,0.0,
2019-09-20, 09:41:07,VALID,919.544,VALID,0.0,VALID,82.521,VALID,346.598,VALID,24.842,INVALID,360.0,VALID,0.0,
2019-09-20, 09:42:07,VALID,919.537,VALID,0.0,VALID,83.486,VALID,322.141,VALID,25.059,INVALID,360.0,VALID,0.0,
2019-09-20, 09:43:07,VALID,919.521,VALID,0.0,VALID,81.151,VALID,321.458,VALID,25.237,INVALID,360.0,VALID,0.0,
2019-09-20, 09:44:07,VALID,919.518,VALID,0.0,VALID,81.652,VALID,331.256,VALID,25.244,INVALID,360.0,VALID,0.0,
2019-09-20, 09:45:07,VALID,919.5,VALID,0.0,VALID,81.362,VALID,360.312,VALID,25.243,INVALID,360.0,VALID,0.0,
2019-09-20, 09:46:07,VALID,919.507,VALID,0.0,VALID,82.621,VALID,381.444,VALID,25.334,INVALID,360.0,VALID,0.0,
2019-09-20, 09:47:07,VALID,919.511,VALID,0.0,VALID,82.836,VALID,378.06,VALID,25.457,INVALID,360.0,VALID,0.0,
2019-09-20, 09:48:07,VALID,919.514,VALID,0.0,VALID,81.076,VALID,377.056,VALID,25.415,INVALID,360.0,VALID,0.0,
2019-09-20, 09:49:07,VALID,919.505,VALID,0.0,VALID,81.787,VALID,381.061,VALID,25.302,INVALID,360.0,VALID,0.0,
2019-09-20, 09:50:07,VALID,919.503,VALID,0.0,VALID,81.621,VALID,359.217,VALID,25.112,INVALID,360.0,VALID,0.0,
2019-09-20, 09:51:07,VALID,919.483,VALID,0.0,VALID,83.223,VALID,334.395,VALID,25.067,INVALID,360.0,VALID,0.0,
2019-09-20, 09:52:07,VALID,919.479,VALID,0.0,VALID,83.058,VALID,308.695,VALID,25.179,INVALID,360.0,VALID,0.0,
2019-09-20, 09:53:07,VALID,919.465,VALID,0.0,VALID,82.108,VALID,295.397,VALID,25.283,INVALID,360.0,VALID,0.0,
2019-09-20, 09:54:07,VALID,919.455,VALID,0.0,VALID,82.052,VALID,292.68,VALID,25.321,INVALID,360.0,VALID,0.0,
2019-09-20, 09:55:07,VALID,919.442,VALID,0.0,VALID,82.305,VALID,355.167,VALID,25.303,INVALID,360.0,VALID,0.0,
2019-09-20, 09:56:07,VALID,919.41,VALID,0.0,VALID,82.578,VALID,348.925,VALID,25.39,INVALID,360.0,VALID,0.0,
2019-09-20, 09:57:07,VALID,919.407,VALID,0.0,VALID,81.681,VALID,326.399,VALID,25.443,INVALID,360.0,VALID,0.0,
2019-09-20, 09:58:07,VALID,919.398,VALID,0.0,VALID,82.125,VALID,341.416,VALID,25.42,INVALID,360.0,VALID,0.0,
2019-09-20, 09:59:07,VALID,919.405,VALID,0.0,VALID,81.588,VALID,283.285,VALID,25.444,INVALID,360.0,VALID,0.0,
2019-09-20, 10:00:07,VALID,919.384,VALID,0.0,VALID,82.297,VALID,244.937,VALID,25.34,INVALID,360.0,VALID,0.0,
2019-09-20, 10:01:07,VALID,919.389,VALID,0.0,VALID,84.277,VALID,257.222,VALID,25.247,INVALID,360.0,VALID,0.0,
2019-09-20, 10:02:07,VALID,919.387,VALID,0.0,VALID,84.587,VALID,261.028,VALID,25.252,INVALID,360.0,VALID,0.0,
2019-09-20, 10:03:07,VALID,919.383,VALID,0.0,VALID,84.242,VALID,273.472,VALID,25.097,INVALID,360.0,VALID,0.0,
2019-09-20, 10:04:07,VALID,919.393,VALID,0.0,VALID,84.247,VALID,284.194,VALID,25.082,INVALID,360.0,VALID,0.0,
2019-09-20, 10:05:07,VALID,919.378,VALID,0.0,VALID,84.472,VALID,266.379,VALID,25.153,INVALID,360.0,VALID,0.0,
2019-09-20, 10:06:07,VALID,919.375,VALID,0.0,VALID,83.445,VALID,243.03,VALID,24.994,INVALID,360.0,VALID,0.0,
2019-09-20, 10:07:07,VALID,919.382,VALID,0.0,VALID,85.201,VALID,234.048,VALID,24.885,INVALID,360.0,VALID,0.0,
2019-09-20, 10:08:07,VALID,919.384,VALID,0.0,VALID,86.334,VALID,241.751,VALID,24.847,INVALID,360.0,VALID,0.0,
2019-09-20, 10:09:07,VALID,919.357,VALID,0.0,VALID,85.305,VALID,265.421,VALID,24.807,INVALID,360.0,VALID,0.0,
2019-09-20, 10:10:07,VALID,919.35,VALID,0.0,VALID,85.84,VALID,297.859,VALID,24.933,INVALID,360.0,VALID,0.0,
2019-09-20, 10:11:07,VALID,919.329,VALID,0.0,VALID,85.018,VALID,297.128,VALID,25.002,INVALID,360.0,VALID,0.0,
2019-09-20, 10:12:07,VALID,919.307,VALID,0.0,VALID,85.146,VALID,284.299,VALID,25.13,INVALID,360.0,VALID,0.0,
2019-09-20, 10:13:07,VALID,919.293,VALID,0.0,VALID,83.776,VALID,262.18,VALID,25.25,INVALID,360.0,VALID,0.0,
2019-09-20, 10:14:07,VALID,919.298,VALID,0.0,VALID,84.199,VALID,246.512,VALID,25.342,INVALID,360.0,VALID,0.0,
2019-09-20, 10:15:07,VALID,919.296,VALID,0.0,VALID,83.483,VALID,248.773,VALID,25.406,INVALID,360.0,VALID,0.0,
2019-09-20, 10:16:07,VALID,919.298,VALID,0.0,VALID,82.797,VALID,261.79,VALID,25.308,INVALID,360.0,VALID,0.0,
2019-09-20, 10:17:07,VALID,919.278,VALID,0.0,VALID,83.268,VALID,280.856,VALID,25.311,VALID,43.0,VALID,0.0,
2019-09-20, 10:18:07,VALID,919.265,VALID,0.0,VALID,83.474,VALID,305.617,VALID,25.371,INVALID,360.0,VALID,0.0,
2019-09-20, 10:19:07,VALID,919.246,VALID,0.0,VALID,82.872,VALID,327.555,VALID,25.342,INVALID,360.0,VALID,0.0,
2019-09-20, 10:20:07,VALID,919.221,VALID,0.0,VALID,82.222,VALID,355.881,VALID,25.375,INVALID,360.0,VALID,0.0,
2019-09-20, 10:21:07,VALID,919.21,VALID,0.0,VALID,82.594,VALID,389.559,VALID,25.435,INVALID,360.0,VALID,0.0,
2019-09-20, 10:22:07,VALID,919.193,VALID,0.0,VALID,82.524,VALID,420.624,VALID,25.4,INVALID,360.0,VALID,0.0,
2019-09-20, 10:23:07,VALID,919.181,VALID,0.0,VALID,81.647,VALID,540.02,VALID,25.549,INVALID,360.0,VALID,0.0,
2019-09-20, 10:24:07,VALID,919.162,VALID,0.0,VALID,81.289,VALID,694.043,VALID,25.417,INVALID,360.0,VALID,0.0,
2019-09-20, 10:25:07,VALID,919.145,VALID,0.0,VALID,82.181,VALID,745.677,VALID,25.258,INVALID,360.0,VALID,0.0,
2019-09-20, 10:26:07,VALID,919.14,VALID,0.0,VALID,84.307,VALID,774.672,VALID,25.411,INVALID,360.0,VALID,0.0,
2019-09-20, 10:27:07,VALID,919.118,VALID,0.0,VALID,83.384,VALID,771.462,VALID,25.767,INVALID,360.0,VALID,0.0,
2019-09-20, 10:28:07,VALID,919.114,VALID,0.0,VALID,81.077,VALID,744.126,VALID,26.043,INVALID,360.0,VALID,0.0,
2019-09-20, 10:29:07,VALID,919.098,VALID,0.0,VALID,78.426,VALID,714.796,VALID,26.145,INVALID,360.0,VALID,0.0,
2019-09-20, 10:30:07,VALID,919.1,VALID,0.0,VALID,78.686,VALID,722.257,VALID,26.189,INVALID,360.0,VALID,0.0,
2019-09-20, 10:31:07,VALID,919.1,VALID,0.0,VALID,78.399,VALID,727.969,VALID,26.298,INVALID,360.0,VALID,0.0,
2019-09-20, 10:32:07,VALID,919.106,VALID,0.0,VALID,78.538,VALID,692.643,VALID,26.365,INVALID,360.0,VALID,0.0,
2019-09-20, 10:33:07,VALID,919.114,VALID,0.0,VALID,77.433,VALID,529.68,VALID,26.322,INVALID,360.0,VALID,0.0,
2019-09-20, 10:34:07,VALID,919.122,VALID,0.0,VALID,78.732,VALID,565.28,VALID,26.169,INVALID,360.0,VALID,0.0,
2019-09-20, 10:35:07,VALID,919.102,VALID,0.0,VALID,77.95,VALID,601.895,VALID,26.062,INVALID,360.0,VALID,0.0,